TimeMDT,TemperatureF,Dew PointF,Humidity,Sea Level PressureIn,VisibilityMPH,Wind Direction,Wind SpeedMPH,Gust SpeedMPH,PrecipitationIn,Events,Conditions,WindDirDegrees,DateUTC
12:53 AM,44.1,34.0,68,29.96,10.0,East,3.5,-,N/A,,Clear,80,2013-09-24 06:53:00
1:53 AM,43.0,34.0,71,29.96,10.0,Calm,Calm,-,N/A,,Clear,0,2013-09-24 07:53:00
2:53 AM,39.0,34.0,82,29.96,10.0,East,3.5,-,N/A,,Partly Cloudy,90,2013-09-24 08:53:00
3:53 AM,37.9,33.1,83,29.95,10.0,SSE,3.5,-,N/A,,Partly Cloudy,160,2013-09-24 09:53:00
4:53 AM,36.0,32.0,86,29.94,10.0,East,3.5,-,N/A,,Partly Cloudy,90,2013-09-24 10:53:00
5:53 AM,37.0,32.0,82,29.92,10.0,Calm,Calm,-,N/A,,Clear,0,2013-09-24 11:53:00
6:53 AM,37.9,33.1,83,29.91,10.0,SE,3.5,-,N/A,,Overcast,130,2013-09-24 12:53:00
7:53 AM,37.9,34.0,86,29.91,10.0,ENE,4.6,-,N/A,,Overcast,60,2013-09-24 13:53:00
8:53 AM,41.0,35.1,79,29.88,10.0,Calm,Calm,-,N/A,,Overcast,0,2013-09-24 14:53:00
9:53 AM,44.1,35.1,71,29.87,10.0,North,3.5,-,N/A,,Overcast,350,2013-09-24 15:53:00
10:53 AM,46.0,36.0,68,29.87,10.0,Variable,3.5,-,N/A,,Overcast,0,2013-09-24 16:53:00
11:53 AM,48.9,37.9,66,29.84,10.0,North,4.6,-,0.00,Rain,Light Rain,360,2013-09-24 17:53:00
12:53 PM,48.9,41.0,74,29.82,10.0,NNW,4.6,-,0.01,Rain,Light Rain,340,2013-09-24 18:53:00
1:53 PM,46.9,42.1,83,29.80,10.0,NNE,5.8,-,0.03,Rain,Light Rain,20,2013-09-24 19:53:00
2:53 PM,46.0,42.1,86,29.79,7.0,NW,4.6,-,0.04,Rain,Light Rain,320,2013-09-24 20:53:00
3:53 PM,46.0,42.1,86,29.77,8.0,NNW,9.2,-,0.03,Rain,Light Rain,330,2013-09-24 21:53:00
4:12 PM,44.6,42.8,93,29.79,7.0,NNW,8.1,-,0.02,Rain,Light Rain,330,2013-09-24 22:12:00
4:53 PM,43.0,39.9,89,29.79,5.0,NNW,8.1,-,0.08,Rain,Light Rain,330,2013-09-24 22:53:00
5:09 PM,42.8,39.2,87,29.80,6.0,NW,9.2,-,0.01,Rain,Light Rain,310,2013-09-24 23:09:00
5:44 PM,39.2,37.4,93,29.82,1.8,WNW,9.2,-,0.12,Rain,Heavy Rain,300,2013-09-24 23:44:00
5:53 PM,39.0,37.0,93,29.83,1.8,WNW,9.2,-,0.16,Rain,Heavy Rain,300,2013-09-24 23:53:00
6:00 PM,39.2,37.4,93,29.83,3.0,WNW,8.1,-,0.02,Rain,Heavy Rain,290,2013-09-25 00:00:00
6:42 PM,35.6,33.8,93,29.84,6.0,Calm,Calm,-,0.18,Rain,Rain,0,2013-09-25 00:42:00
6:53 PM,36.0,34.0,93,29.85,7.0,ENE,5.8,-,0.20,Rain,Rain,70,2013-09-25 00:53:00
7:21 PM,35.6,33.8,93,29.83,10.0,Calm,Calm,-,0.01,,Overcast,0,2013-09-25 01:21:00
7:53 PM,36.0,34.0,93,29.82,10.0,Calm,Calm,-,0.01,,Overcast,0,2013-09-25 01:53:00
8:26 PM,35.6,33.8,93,29.85,10.0,SE,4.6,-,N/A,,Overcast,130,2013-09-25 02:26:00
8:53 PM,37.0,34.0,89,29.85,10.0,Calm,Calm,-,N/A,,Overcast,0,2013-09-25 02:53:00
9:53 PM,37.0,35.1,93,29.82,10.0,Calm,Calm,-,N/A,,Overcast,0,2013-09-25 03:53:00
10:53 PM,37.0,35.1,93,29.81,10.0,Calm,Calm,-,0.01,Rain,Light Rain,0,2013-09-25 04:53:00
11:21 PM,37.4,35.6,93,29.82,10.0,ESE,4.6,-,0.00,,Overcast,120,2013-09-25 05:21:00
11:53 PM,36.0,35.1,97,29.77,10.0,Calm,Calm,-,0.00,,Scattered Clouds,0,2013-09-25 05:53:00